Location: Cruquius
(52.3348°N, 4.6319°E)
Time: 04:47:03
(UTC+00:00)

Cosmos 1733 Rocket - Pass Details

Date: 12 May 2021
Orbit: 603 x 628 km, 82.5° (Epoch: 14 June)

Event Time Altitude Azimuth Distance (km) Brightness Sun altitude
Rises 21:35:30 0° 353° (N) 2,875 7.8 -14.5°
Reaches altitude 10° 21:37:49 10° 359° (N) 1,965 6.6 -14.6°
Maximum altitude 21:42:00 46° 74° (ENE) 819 3.6 -14.9°
Enters shadow 21:44:09 25° 134° (SE) 1,227 4.0 -15.1°
